Weather History for Garrison, ND

Change the Weather History Date:

Sunday, October 30, 2011

  Actual Average Record
Temperature  
Mean Temperature 41 °F -  
Max Temperature 50 °F 44 °F 64 °F (2008)
Min Temperature 31 °F 25 °F 5 °F (2002)
Degree Days  
Heating Degree Days 24    
Month to date heating degree days 516  
Moisture  
Dew Point 26 °F    
Average Humidity 62    
Maximum Humidity 85    
Minimum Humidity 39    
Precipitation  
Precipitation 0.00 in - - ()
Month to date precipitation 0.97  
Year to date precipitation 17.00  
Sea Level Pressure  
Sea Level Pressure 29.98 in    
Wind  
Wind Speed 16 mph (WNW)    
Max Wind Speed 26 mph    
Max Gust Speed 33 mph    
Averages and records for this station are not official NWS values.
T = Trace of Precipitation, MM = Missing Value Source: NWS Daily Summary

Daily Weather History Graph

Daily Weather History Graph

Search for Another Location

Airport:

Trip Planner

Search our weather history database for the weather conditions in past years. The results will help you decide how hot, cold, wet, or windy it might be!

Date:

Astronomy

Oct. 30, 2011 Rise Set
Actual Time 8:26 AM CDT 6:31 PM CDT
Civil Twilight 7:54 AM CDT 7:03 PM CDT
Nautical Twilight 7:18 AM CDT 7:39 PM CDT
Astronomical Twilight 6:42 AM CDT 8:15 PM CDT
Moon 1:00 PM CDT (10/30) 9:50 PM CDT (10/30)
Length of Visible Light 11h 09m
Length of Day
10h 05m
Waxing Crescent, 20% of the Moon is Illuminated
Oct 30
Waxing Crescent
Nov 2
First Quarter
Nov 10
Full
Nov 18
Last Quarter
Nov 25
New

Hourly Weather History & Observations

Time (CDT) Temp. Windchill Dew Point Humidity Pressure Visibility Wind Dir Wind Speed Gust Speed Precip Events Conditions
12:52 AM 36.0 °F 28.5 °F 28.9 °F 76% 29.89 in - WNW 10.4 mph - N/A   Unknown
1:52 AM 35.1 °F 26.9 °F 27.0 °F 72% 29.90 in - WNW 11.5 mph - N/A   Unknown
2:52 AM 35.1 °F 26.4 °F 26.1 °F 70% 29.91 in - WNW 12.7 mph - N/A   Unknown
3:52 AM 35.1 °F 25.9 °F 26.1 °F 70% 29.92 in - WNW 13.8 mph - N/A   Unknown
4:52 AM 34.0 °F 25.0 °F 26.1 °F 73% 29.93 in - WNW 12.7 mph - N/A   Unknown
5:52 AM 32.0 °F 22.1 °F 26.1 °F 79% 29.95 in - WNW 13.8 mph - N/A   Unknown
6:52 AM 30.9 °F 20.2 °F 25.0 °F 79% 29.97 in - WNW 15.0 mph - N/A   Unknown
7:52 AM 30.9 °F 20.2 °F 25.0 °F 79% 29.98 in - WNW 15.0 mph - N/A   Unknown
8:52 AM 30.9 °F 20.2 °F 26.1 °F 82% 29.99 in - WNW 15.0 mph - N/A   Unknown
9:52 AM 35.1 °F 25.2 °F 28.0 °F 76% 30.01 in - WNW 16.1 mph - N/A   Unknown
10:52 AM 39.0 °F 28.8 °F 30.0 °F 70% 30.02 in - WNW 21.9 mph 27.6 mph 0.01 in   Unknown
11:52 AM 43.0 °F 34.8 °F 30.0 °F 60% 30.02 in - WNW 18.4 mph 27.6 mph N/A   Unknown
12:52 PM 45.0 °F 35.6 °F 28.0 °F 52% 30.01 in - NW 27.6 mph 31.1 mph N/A   Unknown
1:52 PM 46.9 °F - 27.0 °F 46% 30.01 in - NW 20.7 mph 31.1 mph N/A   Unknown
2:52 PM 48.9 °F - 26.1 °F 41% 30.00 in - NW 19.6 mph 28.8 mph N/A   Unknown
3:52 PM 48.9 °F - 25.0 °F 39% 30.00 in - NW 20.7 mph 26.5 mph N/A   Unknown
4:52 PM 48.9 °F - 24.1 °F 38% 30.00 in - NW 17.3 mph 21.9 mph N/A   Unknown
5:52 PM 45.0 °F 40.6 °F 25.0 °F 46% 30.01 in - NW 8.1 mph - N/A   Unknown
6:52 PM 41.0 °F 38.0 °F 24.1 °F 51% 30.01 in - WNW 4.6 mph - N/A   Unknown
7:52 PM 33.1 °F - 25.0 °F 72% 30.02 in - Calm Calm - N/A   Unknown
8:52 PM 37.0 °F - 25.0 °F 62% 30.01 in - Calm Calm - N/A   Unknown
9:52 PM 35.1 °F - 28.0 °F 76% 29.99 in - Calm Calm - N/A   Unknown
10:52 PM 36.0 °F - 26.1 °F 67% 29.98 in - Calm Calm - N/A   Unknown
11:52 PM 34.0 °F 31.0 °F 28.0 °F 79% 29.96 in - South 3.5 mph - N/A   Unknown